Hourly Data Report for October 09, 2014

All times are specified in Local Standard Time (LST). Add 1 hour to adjust for Daylight Saving Time where and when it is observed.

PENTICTON A
BRITISH COLUMBIA

49°27'45.000" N
119°36'08.000" W
344.40 m
1126146
71889
YYF

Download Data

Hourly Data (October 2014)
Hourly Data Report for October 9, 2014
Temp Definition
°C
Dew Point Temp Definition
°C
Rel Hum Definition
%
Wind Dir Definition
10's deg

Wind Spd Definition
km/h
Visibility Definition
km
Stn Press Definition
kPa
Hmdx Definition


Wind Chill Definition


Weather Definition


TIME
00:00 Legend Double Dagger 9.3 4.3 71 36 14 24.1 97.64     LegendNANA
01:00 Legend Double Dagger 8.8 4.5 74 36 14 24.1 97.64     Mainly Clear
02:00 Legend Double Dagger 8.8 4.5 74 36 12 24.1 97.66     LegendNANA
03:00 Legend Double Dagger 8.2 4.4 77 1 14 24.1 97.65     LegendNANA
04:00 Legend Double Dagger 6.7 3.7 81 35 7 24.1 97.72     Clear
05:00 Legend Double Dagger 6.6 3.8 82 3 4 24.1 97.75     LegendNANA
06:00 Legend Double Dagger 7.2 3.8 79 1 14 24.1 97.77     LegendNANA
07:00 Legend Double Dagger 7.3 4.3 81 2 14 24.1 97.81     Mostly Cloudy
08:00 Legend Double Dagger 13.1 7.2 67 33 8 24.1 97.83     LegendNANA
09:00 Legend Double Dagger 14.4 8.6 68 1 13 24.1 97.86     LegendNANA
10:00 Legend Double Dagger 14.9 8.4 65 35 10 24.1 97.82     Mostly Cloudy
11:00 Legend Double Dagger 16.1 9.4 64 35 17 24.1 97.81     LegendNANA
12:00 Legend Double Dagger 17.9 8.8 55 35 14 24.1 97.72     LegendNANA
13:00 Legend Double Dagger 17.9 9.4 57 34 15 24.1 97.65     Mostly Cloudy
14:00 Legend Double Dagger 18.2 9.4 56 34 13 24.1 97.61     LegendNANA
15:00 Legend Double Dagger 18.5 9.4 55 34 7 24.1 97.56     LegendNANA
16:00 Legend Double Dagger 18.6 9.8 56 35 13 24.1 97.55     Mostly Cloudy
17:00 Legend Double Dagger 16.7 9.9 64 1 5 24.1 97.52     LegendNANA
18:00 Legend Double Dagger 12.3 8.8 79 34 9 24.1 97.55     LegendNANA
19:00 Legend Double Dagger 12.0 8.3 78 35 12 24.1 97.57     Mainly Clear
20:00 Legend Double Dagger 9.8 6.9 82 36 7 24.1 97.58     LegendNANA
21:00 Legend Double Dagger 9.6 7.4 86 2 7 24.1 97.62     LegendNANA
22:00 Legend Double Dagger 8.0 6.2 88 36 2 24.1 97.66     Mainly Clear
23:00 Legend Double Dagger 8.0 5.8 86 36 7 24.1 97.68     LegendNANA

Notes on Data Quality.

Legend

  • E = Estimated
  • M = Missing
  • NA = Not Available
  • ‡ = Partner data that is not subject to review by the National Climate Archives
Date modified: